www.pogodaiklimat.ru

Погода и климат >> Архив погоды >> Мексика >> Arriaga


ПОГОДА в Arriaga

  • Прогноз погоды в Arriaga
  • Монитор погоды в Arriaga
  • Климат города

АРХИВ ПОГОДЫ в Arriaga

Время (UTC), дата Ветер
(напр.,м/с)
 
Видим.   Явления Облачность Т
(С)
Тd
(С)
f
(%)
Тe
(С)
Тes
(С)
Комфортность P
(гПа)
Po
(гПа)
Тmin
(С)
Tmax
(С)
R
(мм)
R24
(мм)
S
(см)
21 18.04 штиль 0 4000 м морось 9/4 800 м
[Cb cap Ac und]
+34.0 +19.3 42 +39 +39 очень
душно
1011.2 1005.7 5
00 19.04 штиль 0 3000 м 5/0 600 м
[Ac lent]
+30.2 +23.5 67 +41 +41 опасность
перегрева
1010.2 1004.7 +23.0 +36.5
03 19.04 штиль 0 100 м 4/0
[Ci]
+26.6 +23.0 81 +36 +36 очень
душно
1012.2 1007.2
06 19.04 С 1 100 м ясно +27.0 +22.8 78 +36 +36 очень
душно
1011.7 1006.1 +23.0 +36.5
12 19.04 С 2 3000 м ясно +26.2 +20.8 72 +33 +33 очень
душно
1009.3 1003.7 +20.0 +36.5
15 19.04 С 1 5000 м ясно +28.9 +21.9 66 +37 +49 очень
душно
1012.1 1006.6
18 19.04 С 1 5000 м ясно +35.5 +23.3 49 +46 +72 опасность
перегрева
1015.5 1009.9 +21.0 +36.4
21 19.04 СВ 3 5000 м 3/3 800 м
[Cu med, cong]
+38.0 +25.8 50 +53 +60 опасность
перегрева
1011.6 1006.1
00 20.04 штиль 0 50 км ?/? +33.2 +26.8 69 +51 +51 опасность
перегрева
1008.7 1003.3 +21.0 +39.5
03 20.04 СВ 3 100 м ясно +29.8 +24.5 73 +42 +42 опасность
перегрева
1008.3 1002.9
06 20.04 СВ 5 100 м ясно +28.6 +23.7 75 +39 +39 очень
душно
1015.4 1007.4 +21.0 +39.5
09 20.04 С 4 100 м ясно +27.8 +24.0 80 +39 +39 очень
душно
1005.4 1005.7
12 20.04 С 3 1000 м ясно +26.8 +22.9 79 +36 +36 очень
душно
1011.9 1006.3 +24.0 +39.5
15 20.04 С 4 5000 м ясно +29.8 +24.5 73 +42 +49 опасность
перегрева
1012.7 1007.2
18 20.04 штиль 0 5000 м 3/3 800 м
[Cu hum]
+36.4 +27.4 60 +55 +76 опасность
перегрева
1014.3 1008.8 +24.0 +37.5
21 20.04 С 3 3000 м 4/4 840 м
[Cu med, cong]
+35.8 +27.0 61 +54 +61 опасность
перегрева
1011.8 1006.3
00 21.04 С 2 3000 м 4/0 2000 м
[Ac lent]
+34.0 +27.5 69 +53 +54 опасность
перегрева
1011.4 1006.0 +24.0 +42.8
03 21.04 С 1 1000 м 4/0 2000 м
[Ac lent]
+29.4 +27.5 90 +48 +48 опасность
перегрева
1011.4 1006.0
06 21.04 С 5 1000 м 5/0 2000 м
[Ac trans]
+28.4 +24.6 80 +40 +40 очень
душно
1008.9 1003.5 +24.0 +42.8
09 21.04 С 3 1000 м 4/0 2000 м
[Ac trans]
+27.4 +23.7 80 +37 +37 очень
душно
1010.4 1004.9
12 21.04 С 5 1000 м 4/0 2000 м
[Ac trans]
+27.4 +23.7 80 +37 +37 очень
душно
1009.5 1004.0 +25.0 +42.8
15 21.04 штиль 0 4000 м 4/4 840 м
[Cu hum]
+31.4 +25.5 71 +46 +54 опасность
перегрева
1011.2 1005.7
18 21.04 С 2 4000 м 4/4 840 м
[Sc diur, vesp]
+37.2 +26.2 54 +53 +66 опасность
перегрева
1012.7 1007.2 +25.0 +38.5
21 21.04 С 4 4000 м 4/4 840 м
[Sc diur, vesp]
+35.4 +26.2 59 +51 +57 опасность
перегрева
1009.9 1004.5
00 22.04 штиль 0 3000 м 4/4 2000 м
[Sc diur, vesp]
+31.8 +25.4 69 +46 +46 опасность
перегрева
1007.4 1002.0 +25.0 +38.8
03 22.04 штиль 0 1000 м 5/5 840 м
[Sc diur, vesp]
+29.0 +25.4 81 +43 +43 опасность
перегрева
1008.2 1002.8
06 22.04 штиль 0 1000 м 4/4 840 м
[Sc diur, vesp]
+28.2 +23.8 77 +39 +39 очень
душно
1008.9 1003.5 +25.0 +38.8
12 22.04 штиль 0 1000 м 4/0 2000 м
[Ac trans]
+24.4 +23.0 92 +32 +32 очень
душно
1008.4 1002.9 +23.0 +38.8
15 22.04 штиль 0 5000 м 3/3 840 м
[Cu hum]
+30.6 +24.4 70 +43 +53 опасность
перегрева
1011.3 1005.8
18 22.04 С 1 3000 м 5/5 840 м
[Sc diur, vesp]
+34.4 +26.0 62 +50 +63 опасность
перегрева
1012.5 1007.0 +23.0 +36.5
21 22.04 штиль 0 5000 м 4/4 800 м
[Cu hum]
+34.4 +24.3 56 +47 +57 опасность
перегрева
1012.4 1007.0
00 23.04 штиль 0 5000 м ясно +32.5 +23.8 60 +44 +44 опасность
перегрева
1008.5 1003.1 +25.0 +38.0
03 23.04 штиль 0 100 м 4/0 1500 м
[Ac lent]
+29.6 +22.4 65 +39 +39 очень
душно
1009.4 1004.0
06 23.04 штиль 0 100 м ясно +27.8 +22.2 72 +36 +36 очень
душно
1008.6 1003.2 +22.0 +32.0
12 23.04 штиль 0 100 м мгла {туман} ясно +29.0 +23.8 74 +40 +40 очень
душно
1007.4 1002.0 +20.0 +32.0
15 23.04 С 5 4000 м дым {туман} ясно +30.4 +25.3 74 +44 +50 опасность
перегрева
1010.5 1005.0
18 23.04 С 6 4000 м дым {туман} ясно +35.2 +27.4 64 +54 +63 опасность
перегрева
1012.4 1007.2 +26.0 +36.5
21 23.04 С 4 4000 м дым {туман} 8/0
[Cs]
+36.6 +28.2 62 +57 +65 опасность
перегрева
1011.1 1005.6
00 24.04 С 6 4000 м дым {туман} 5/0
[Cs]
+33.6 +25.6 63 +48 +49 опасность
перегрева
1007.6 1002.2 +26.5 +38.5
03 24.04 С 8 100 м ясно +29.6 +21.8 63 +38 +38 очень
душно
1007.6 1002.3
12 24.04 С 2 1000 м ясно +26.4 +20.0 68 +32 +32 очень
душно
1008.6 1003.1 +19.0 +38.5
15 24.04 С 2 4000 м ясно +27.4 +21.5 70 +35 +45 очень
душно
1011.3 1005.8
18 24.04 С 1 5000 м ясно +35.8 +26.9 60 +53 +79 опасность
перегрева
1014.3 1008.7 +19.0 +36.5
21 24.04 С 1 5000 м 4/4 800 м
[Cu hum]
+37.5 +26.4 53 +53 +63 опасность
перегрева
1010.9 1005.5
00 25.04 штиль 0 5000 м 3/3 600 м
[Cu hum]
+33.9 +25.4 61 +48 +49 опасность
перегрева
1008.3 1002.9 +19.0 +41.5
03 25.04 штиль 0 100 м ясно +30.0 +25.9 79 +45 +45 опасность
перегрева
1008.4 1003.0
06 25.04 штиль 0 100 м 4/0 2000 м
[Ac cast]
+29.0 +23.2 71 +39 +39 очень
душно
1010.0 1004.6 +19.0 +41.5
12 25.04 штиль 0 1000 м 6/0 2000 м
[Ac As]
+26.2 +21.7 76 +34 +34 очень
душно
1009.9 1004.4 +20.5 +41.5
15 25.04 штиль 0 4000 м 4/0 210 м
[Ac As]
+29.9 +23.0 67 +40 +50 очень
душно
1011.4 1005.9
18 25.04 Ю 1 5000 м 4/4 800 м
[Cu hum]
+35.0 +23.6 52 +46 +62 опасность
перегрева
1013.8 1008.3 +20.5 +36.5

 

Местоположение метеостанции Arriaga (Мексика): широта 16.23 долгота -93.90 высота над уровнем моря 48 м.

В архиве по умолчанию представлена погода в Arriaga за последнюю неделю. Архивные данные за месяц целиком и за предыдущие месяцы, начиная с января 2011 года, Вы можете получить, выбрав интересующий диапазон дат из раскрывающегося списка и нажав кнопку "Ввод!".

Внимание! Время в таблицах - всемирное. Для получения местного времени необходимо прибавить поправку, которая в Arriaga равна -6 ч.

Смотрите также архив погоды в соседних городах и на ближайших метеорологических станциях:

Погода в Tuxtla Gutierrez (Мексика) (100 км)
Погода в Salina Cruz (Мексика) (137 км)
Погода в Sn. Cristobal Las C (Мексика) (147 км)
Погода в Comitan (Мексика) (189 км)
Погода в Coatzacoalcos (Мексика) (218 км)
Погода в Villahermosa (Мексика) (220 км)
Погода в Tapachula City (Мексика) (229 км)
Погода в Huehuetenango (Гватемала) (280 км)
Погода в Puerto Angel (Мексика) (283 км)
Погода в Oaxaca (Мексика) (313 км)

Пояснения к столбцам:

Ветер - указаны скорость ветра в м/с - средняя за 10 мин, порывы в срок и между сроками (в фигурных скобках) и направление, откуда дует ветер: С - северный, СВ - северо-восточный, В - восточный, ЮВ - юго-восточный, Ю - южный, ЮЗ - юго-западный, З - западный, СЗ - северо-западный.
Видимость - горизонтальная дальность видимости в метрах или километрах. При видимости от 1 до 10 км при отсутствии осадков обычно наблюдается дымка, при ухудшении видимости до 1 км и менее - туман. В сухую погоду видимость может ухудшаться дымом, пылью или мглою.
Явления - указаны атмосферные явления, наблюдавшиеся в срок или в последний час перед сроком; фигурными скобками обозначены явления, наблюдавшиеся между сроками (за 1-3 часа до срока); квадратными скобками обозначены град или гололедные отложения с указанием их диаметра в мм.
Облачность - указаны через наклонную черту общая и нижняя облачность в баллах и высота нижней границы облаков в метрах; квадратными скобками обозначены формы облаков: Ci - перистые, Cs - перисто-слоистые, Cc - перисто-кучевые, Ac - высококучевые, As - высокослоистые, Sc - слоисто-кучевые, Ns - слоисто-дождевые, Cu - кучевые, Cb - кучево-дождевые. Подробнее классификацию облаков см. в Атласе облаков (PDF).
T - Температура воздуха - температура, измеренная на высоте 2 м над землей.
Td - Температура точки росы - температура, при понижении до которой содержащийся в воздухе водяной пар достигнет насыщения.
f - Относительная влажность воздуха - влажноcть воздуха, измеренная на высоте 2 м над землей.
Te - Эффективная температура - температура, которую ощущает одетый по сезону человек в тени. Характеристика душности погоды. При расчете учитывается влияние влажности воздуха и скорости ветра на теплоощущения человека.
Tes - Эффективная температура на солнце - температура, которую ощущает человек, с поправкой на солнечный нагрев. Характеристика знойности погоды. Зависит от высоты солнца над горизонтом, облачности и скорости ветра. Ночью, в пасмурную погоду, а также при ветре 12 м/с и более поправка равна нулю.
P - Атмосферное давление - приведенное к уровню моря атмосферное давление.
Po - Атмосферное давление - измеренное на уровне метеостанции атмосферное давление.
Tmin - Минимальная температура - минимум температуры воздуха на высоте 2 м над землей.
Tmax - Максимальная температура - максимум температуры воздуха на высоте 2 м над землей.
R - Количество осадков - Количество выпавших осадков за период времени, мм. При наведении курсора мыши на число - период времени, за который выпало указанное количество осадков.
R24 - Количество осадков - Количество выпавших осадков за 24 часа, мм.
S - Снежный покров - Высота снежного покрова, см. При наведении курсора мыши на число - состояние снежного покрова и степень покрытия местности в баллах.